Flag for U.S.A. Weather past 2 weeks in St. Louis, Missouri, U.S.A.

Now
85 °F

Partly sunny.


Feels Like: 83 °F
Forecast: 60 / 82 °F
Wind: 13 mph from Southwest

Location: Lambert-St. Louis International Airport

Current Time: May 3, 2015 at 4:01:58 PM

Latest Report: May 3, 2015 at 2:51 PM


Visibility: 10 mi

Pressure: 29.93 "Hg

Humidity: 30%

Dew point: 50 °F

Location of St. LouisLocation

Historic Weather in St. Louis — Graph

°F

St. Louis temperature yesterday

Maximum temperature yesterday: 79 °F (at 2:51 PM)
Minimum temperature yesterday: 56 °F (at 4:51 AM)
Average temperature yesterday: 68 °F

Past Weeks' High & Low Weather Summary

 TemperatureHumidityPressure
High85 °F (May 3, 2:51 PM)94% (Apr 25, 6:59 AM)30.19 "Hg (Apr 25, 6:59 AM)
Low39 °F (Apr 23, 4:51 AM)22% (Apr 23, 1:51 PM)29.46 "Hg (Apr 25, 12:51 PM)
Average59 °F51%29.91 "Hg
* Reported Apr 18 2:51 PM — May 3 2:51 PM, St. Louis, Weather by CustomWeather, © 2015

Note: Actual official high and low records may vary slightly from our data, if they occured in-between our weather recording intervals... More about our weather records

Advertising

St. Louis weather history for previous 24 hours

 ConditionsComfort  
Time TempWeatherWind HumidityBarometerVisibility
2:51 PM
Sun, May 3
85 °FPartly sunny.13 mph30%29.93 "Hg10 mi
1:51 PM83 °FPartly sunny.9 mph33%29.94 "Hg10 mi
12:51 PM82 °FPartly sunny.17 mph34%29.96 "Hg10 mi
11:51 AM81 °FPartly sunny.14 mph35%29.97 "Hg10 mi
10:51 AM78 °FPartly sunny.10 mph39%29.98 "Hg10 mi
9:51 AM75 °FPartly sunny.8 mph42%30.00 "Hg10 mi
8:51 AM71 °FBroken clouds.14 mph41%30.01 "Hg10 mi
7:51 AM67 °FPartly sunny.9 mph45%29.99 "Hg10 mi
6:51 AM64 °FPartly cloudy.7 mph47%29.98 "Hg10 mi
5:51 AM64 °FPartly cloudy.7 mph45%29.96 "Hg10 mi
4:51 AM65 °FMostly cloudy.8 mph45%29.97 "Hg10 mi
3:51 AM67 °FMostly cloudy.6 mph42%29.96 "Hg10 mi
2:51 AM67 °FOvercast.5 mph42%29.97 "Hg10 mi
1:51 AM68 °FOvercast.8 mph40%29.97 "Hg10 mi
12:51 AM69 °FMostly cloudy.6 mph39%29.97 "Hg10 mi
11:51 PM
Sat, May 2
70 °FMostly cloudy.10 mph38%29.96 "Hg10 mi
10:51 PM70 °FPassing clouds.10 mph39%29.97 "Hg10 mi
9:51 PM72 °FPassing clouds.10 mph37%29.98 "Hg10 mi
8:51 PM72 °FPartly sunny.8 mph35%29.97 "Hg10 mi
7:51 PM73 °FPartly sunny.7 mph36%29.96 "Hg10 mi
6:51 PM74 °FPartly sunny.7 mph36%29.97 "Hg10 mi
5:51 PM79 °FPartly sunny.No wind25%29.96 "Hg10 mi
4:51 PM78 °FPartly sunny.3 mph25%29.98 "Hg10 mi
Weather by CustomWeather, © 2015

See weather overviewHow to use our weather pages